Погода в Верхнеимбатске

Погода в Верхнеимбатске : погода сейчас, прогноз погоды и архив. Всё, что Вы хотите узнать о погоде в Верхнеимбатске!

Хотите узнать прогноз погоды в Верхнеимбатске? Тогда Вам сюда: Погода в Верхнеимбатске

Поиск расширенной информации на нашем сайте:

Другие новости

Новости СМИ2

Главная страница сайта

Новости сайта

03.07.2017

Напоминаем, что на нашем специализированном сайте Метеоцентр.Азия вы можете получить высокодетализированные автоматические прогнозы погоды по пунктам России, СНГ и мира в авиационном формате (включающие направление и скорость ветра, видимость, явления погоды, количество и форму облачности, нижнюю и верхнюю границу облачности).

Рекомендуем: Что представляют из себя цветы в шляпных коробках

Погода в Верхнеимбатске - сегодня

Время (UTC), дата Ветер
(°,м/с) 
Видим.   Явления Облачность Т
(°С)
Тd
(°С)
f(%) Тe
(°С)
Pmin
(гПа)
dP
(гПа)
Po
(мм)
O2
(г/м3)
Тmin Tmax R s Состояние
почвы
03 18.07.17 060 (СВ) 20000 м    8/0 верхняя 
[Ci fib]
+18.4 +12.1 67 +24  1014.8  757  283           
06 18.07.17 070 (В) 20000 м    8/8 600 м 
[Cu med, cong]
+23.4 +7.4 36 +23  1013.9  -0.8  756  280           
09 18.07.17 080 (В) 20000 м    8/8 600 м 
[Cu med, cong]
+22.8 +7.5 37 +23  1012.9  -1  756  280           
12 18.07.17 010 (С) 20000 м    8/8 600 м 
[Cu med, cong]
+23.8 +7.2 34 +24  1012.6  -0.3  755  279    +24.8       
15 18.07.17 тихо ()   20000 м    8/8 600 м 
[Sc]
+20.8 +14.3 66 +28  1012.9  0.3  756  280           
18 18.07.17 050 (СВ) н/о    3/0 средняя, верхняя 
[As trans|Ci fib]
+14.7 +11.1 79 +17  1012.9  -0.1  756  287           
21 18.07.17 тихо ()   20000 м    4/0 средняя 
[Ac As]
+11.8 +8.6 81 +12  1013.4  0.5  756  291           
00 19.07.17 тихо ()   20000 м    1/0 верхняя 
[Ci fib]
+16.9 +10.8 67 +19  1013.5  0.1  756  285  +10.7         
03 19.07.17 230 (ЮЗ) 20000 м    3/0 верхняя 
[Ci fib]
+19.9 +12.2 61 +25  1013.3  -0.2  756  282           
06 19.07.17 230 (ЮЗ) 20000 м    3/3 600 м 
[Cu hum]
+25 +10.7 41 +27  1012.7  -0.5  756  277           
09 19.07.17 260 (З) 20000 м    3/3 600 м 
[Cu med, cong]
+25.7 +7.5 31 +26  1011.8  -0.9  755  277           
12 19.07.17 030 (СВ) 20000 м    1/1 600 м 
[Cu hum]
+26.8 +6.2 27 +27  1010.7  -1  754  276    +27       
15 19.07.17 340 (С) 20000 м    4/0 средняя 
[Ac As]
+23 +10.1 44 +24  1010.6  -0.2  754  278           
18 19.07.17 320 (СЗ) н/о    8/4 600 м средняя 
[Cu hum|Ac As]
+17.9 +11.5 66 +22  1010.4  -0.3  754  283           
21 19.07.17 060 (СВ) 20000 м    8/0 средняя 
[Sc|Ac As]
+17.3 +9.7 61 +19  1010.2  -0.1  754  284           
00 20.07.17 030 (СВ) 20000 м    8/0 средняя 
[Ac As]
+18.3 +10.5 60 +21  1010.2  754  283  +15.6         
03 20.07.17 220 (ЮЗ) 20000 м    1/1 600 м 
[Sc]
+21.8 +14.3 62 +29  1010.3  0.1  754  278           
06 20.07.17 170 (Ю) 20000 м    3/1 600 м верхняя 
[Cu med, cong|Ci fib]
+26 +11.7 41 +29  1010.3  0.1  754  275           
09 20.07.17 160 (Ю) 20000 м    4/3 600 м верхняя 
[Cu med, cong|Ci fib]
+28.6 +8.1 28 +29  1010.4  0.1  754  274           
12 20.07.17 270 (З) 20000 м    9/3 600 м верхняя 
[Cu med, cong|Ci fib]
+28 +9.3 31 +28  1010.4  754  274    +28.8       
15 20.07.17 010 (С) 20000 м    9/1 600 м средняя, верхняя 
[Cu Sc|Ac lent|Ci fib]
+23.1 +12.4 51 +27  1011.4  0.9  755  278           
18 20.07.17 040 (СВ) н/о    3/1 600 м верхняя 
[Sc|Ci fib]
+19.8 +11.1 57 +23  1012.1  0.6  755  282           
21 20.07.17 040 (СВ) 20000 м    3/3 600 м 
[Sc]
+16.7 +11.8 73 +21  1012.9  0.8  756  285           
00 21.07.17 050 (СВ) 20000 м    ясно 
+19.5 +12.8 65 +26  1014.2  1.3  757  282  +16.4         
03 21.07.17 040 (СВ) 20000 м    ясно 
+24 +13.8 53 +30  1015.3  1.2  758  278           
Время (UTC), дата Ветер
(°,м/с) 
Видим.   Явления Облачность Т
(°С)
Тd
(°С)
f(%) Тe
(°С)
Pmin
(гПа)
dP
(гПа)
Po
(мм)
O2
(г/м3)
Тmin Tmax R s Состояние
почвы

Для получения пояснительной информации подведите курсор к названию столбца.

ПОГОДА в Верхнеимбатске - архив

Всё, что Вы хотите узнать о погоде в Верхнеимбатске - удобно и подробно!

Выберите нужную дату (начиная с 1 января 2015* года) и нажмите кнопку "Найти".
Будут отображены архивные сводки погоды по пункту Верхнеимбатск, начиная с указанной даты.


Отображать данные в формате CSV (для использования в таблицах Excel)


Внимание! Наш архив погоды предназначен исключительно для личного некоммерческого использования в познавательных целях. Если Вам необходимы официальные справки о состоянии погоды (для производственных, юридических, коммерческих и т.п. целей), обращайтесь в органы Росгидромета.

*Примечание: данная дата относится к архиву по метеостанциям СССР (Россия, СНГ, Балтия).
Архив по метеостанциям Зарубежной Европы и Азии (кроме Китая) хранится 10 дней, по другим регионам земного шара (Китай, Африка, Америка, Австралия, Океания) - 1 день.

Верхнеимбатск - район местоположения метеостанции


Название, широта, долгота, высота метеостанции:
Верхнеимбатск 63.2°ш. 87.9°д. 46 м над ур. моря [Российская Федерация]

Дополнительная информация

В oтличие oт бoльшинства пoгoдных сайтoв мы публикуем пoдрoбную метеoинфoрмацию в детальнoм прoфессиoнальнoм фoрмате.

Характеристики температуры и влажнoсти вoздуха измеряются на высoте 2 м в тени вдали oт зданий и деревьев.
Скoрoсть ветра измеряется на высoте 10 м (на урoвне рoста челoвека скoрoсть ветра ниже в 1.5-2 раза). Если метеoстанция нахoдится в гoрoде или в лесу, тo скoрoсть ветра занижена на 2-4 м/с пo сравнению с oткрытым местoм. Скoрoсть ветра над акватoриями крупных рек и oзёр, а также на вершинах хoлмoв на 2-5 м/с выше, чем в oбычных услoвиях.
Атмoсфернoе давление в разных тoчках местнoсти мoжет значительнo oтличаться oт давления на метеoстанции, в зависимoсти oт услoвий рельефа (при пoдъёме на 10 м давление пoнижается примернo на 1 мм рт.ст.).